TimeCDT,TemperatureF,Dew PointF,Humidity,Sea Level PressureIn,VisibilityMPH,Wind Direction,Wind SpeedMPH,Gust SpeedMPH,PrecipitationIn,Events,Conditions,WindDirDegrees,DateUTC
12:15 AM,56.5,54.7,94,30.15,10.0,North,13.8,-,N/A,,Overcast,350,2014-03-09 06:15:00
12:40 AM,55.8,53.8,93,30.16,10.0,North,13.8,19.6,N/A,,Overcast,360,2014-03-09 06:40:00
12:55 AM,55.4,53.2,92,30.16,10.0,North,12.7,20.7,N/A,,Overcast,360,2014-03-09 06:55:00
1:15 AM,54.7,52.7,93,30.16,10.0,North,9.2,-,N/A,,Overcast,360,2014-03-09 07:15:00
1:35 AM,54.7,52.7,93,30.17,10.0,North,10.4,-,N/A,,Overcast,350,2014-03-09 07:35:00
1:55 AM,54.9,52.9,93,30.16,10.0,North,9.2,-,N/A,,Overcast,360,2014-03-09 07:55:00
3:15 AM,54.9,53.1,94,30.17,10.0,North,8.1,-,N/A,,Overcast,360,2014-03-09 08:15:00
3:35 AM,55.0,53.2,94,30.16,10.0,North,6.9,-,N/A,,Overcast,10,2014-03-09 08:35:00
3:55 AM,55.4,53.6,94,30.16,10.0,North,9.2,-,N/A,,Overcast,350,2014-03-09 08:55:00
4:15 AM,55.2,53.4,94,30.16,10.0,North,10.4,-,N/A,,Overcast,360,2014-03-09 09:15:00
4:35 AM,54.7,52.9,94,30.16,10.0,NNW,9.2,-,N/A,,Overcast,340,2014-03-09 09:35:00
4:55 AM,53.4,51.8,94,30.17,10.0,North,12.7,-,N/A,,Overcast,350,2014-03-09 09:55:00
5:15 AM,52.7,51.1,94,30.18,10.0,NNW,13.8,18.4,N/A,,Overcast,330,2014-03-09 10:15:00
5:35 AM,52.5,50.5,93,30.18,10.0,North,13.8,-,N/A,,Overcast,350,2014-03-09 10:35:00
5:55 AM,52.3,50.4,93,30.19,10.0,North,13.8,20.7,N/A,,Overcast,350,2014-03-09 10:55:00
6:15 AM,52.0,50.0,93,30.20,7.0,North,11.5,19.6,N/A,Rain,Light Rain,10,2014-03-09 11:15:00
6:35 AM,51.8,50.0,94,30.20,7.0,North,10.4,-,N/A,,Drizzle,10,2014-03-09 11:35:00
6:55 AM,51.6,50.2,95,30.19,5.0,North,8.1,-,0.02,Rain,Rain,10,2014-03-09 11:55:00
7:15 AM,51.3,50.2,96,30.19,5.0,NE,8.1,-,0.02,Rain,Light Rain,50,2014-03-09 12:15:00
7:35 AM,51.4,50.4,96,30.18,7.0,ENE,8.1,-,0.02,,Light Drizzle,70,2014-03-09 12:35:00
7:55 AM,51.8,50.7,96,30.19,5.0,North,6.9,-,0.03,Rain,Light Rain,10,2014-03-09 12:55:00
8:15 AM,52.0,51.1,97,30.20,5.0,North,9.2,-,0.01,Rain,Rain,350,2014-03-09 13:15:00
8:35 AM,51.6,50.7,97,30.22,5.0,NNW,8.1,-,0.02,Rain,Rain,340,2014-03-09 13:35:00
8:55 AM,50.5,49.5,96,30.21,7.0,North,13.8,18.4,0.02,,Overcast,350,2014-03-09 13:55:00
9:15 AM,49.1,48.2,97,30.21,4.0,North,13.8,19.6,N/A,,Overcast,10,2014-03-09 14:15:00
9:35 AM,49.5,48.4,96,30.24,3.0,North,11.5,-,N/A,,Overcast,350,2014-03-09 14:35:00
9:55 AM,49.3,48.0,95,30.25,2.5,NNW,12.7,19.6,N/A,,Overcast,340,2014-03-09 14:55:00
10:15 AM,48.9,47.7,95,30.25,2.5,North,17.3,20.7,N/A,,Overcast,360,2014-03-09 15:15:00
10:35 AM,49.5,48.2,95,30.26,2.5,North,15.0,-,N/A,,Overcast,360,2014-03-09 15:35:00
10:55 AM,49.8,48.4,95,30.27,3.0,North,10.4,-,N/A,,Overcast,350,2014-03-09 15:55:00
11:15 AM,50.0,48.4,94,30.27,3.0,North,13.8,-,N/A,,Overcast,350,2014-03-09 16:15:00
11:35 AM,50.2,48.4,94,30.27,3.0,North,15.0,20.7,N/A,,Overcast,350,2014-03-09 16:35:00
11:55 AM,50.2,48.2,93,30.27,4.0,North,17.3,21.9,N/A,,Overcast,10,2014-03-09 16:55:00
12:15 PM,50.4,48.4,93,30.27,3.0,NNW,12.7,17.3,N/A,,Overcast,340,2014-03-09 17:15:00
12:35 PM,50.5,48.4,92,30.27,4.0,North,12.7,-,N/A,,Overcast,360,2014-03-09 17:35:00
12:55 PM,51.1,48.7,92,30.26,4.0,North,13.8,-,N/A,,Overcast,360,2014-03-09 17:55:00
1:15 PM,51.4,48.9,91,30.25,5.0,North,12.7,-,N/A,,Overcast,360,2014-03-09 18:15:00
1:35 PM,51.8,49.1,90,30.25,5.0,North,13.8,-,N/A,,Overcast,360,2014-03-09 18:35:00
1:55 PM,52.3,49.5,90,30.24,5.0,North,11.5,-,N/A,,Overcast,350,2014-03-09 18:55:00
2:15 PM,53.1,49.6,88,30.24,5.0,North,12.7,-,N/A,,Overcast,350,2014-03-09 19:15:00
2:35 PM,53.8,50.2,88,30.23,5.0,North,13.8,17.3,N/A,,Overcast,10,2014-03-09 19:35:00
2:55 PM,54.9,50.5,85,30.22,5.0,North,12.7,-,N/A,,Overcast,360,2014-03-09 19:55:00
3:15 PM,55.6,51.1,85,30.21,7.0,North,12.7,-,N/A,,Overcast,10,2014-03-09 20:15:00
3:35 PM,55.9,51.3,84,30.20,7.0,North,13.8,-,N/A,,Overcast,10,2014-03-09 20:35:00
3:55 PM,57.7,52.0,81,30.19,7.0,North,15.0,18.4,N/A,,Overcast,360,2014-03-09 20:55:00
4:15 PM,57.7,52.2,82,30.19,7.0,North,13.8,-,N/A,,Overcast,360,2014-03-09 21:15:00
4:35 PM,58.8,52.7,80,30.18,7.0,North,13.8,-,N/A,,Overcast,360,2014-03-09 21:35:00
4:55 PM,59.4,53.1,80,30.19,7.0,North,10.4,16.1,N/A,,Mostly Cloudy,350,2014-03-09 21:55:00
5:15 PM,59.7,53.2,79,30.18,7.0,North,10.4,-,N/A,,Scattered Clouds,350,2014-03-09 22:15:00
5:35 PM,59.4,53.4,81,30.17,7.0,North,9.2,-,N/A,,Clear,350,2014-03-09 22:35:00
5:55 PM,60.4,53.6,78,30.16,7.0,NNE,9.2,-,N/A,,Clear,20,2014-03-09 22:55:00
6:15 PM,60.6,53.8,78,30.16,10.0,NNE,6.9,-,N/A,,Clear,20,2014-03-09 23:15:00
6:35 PM,60.6,54.3,80,30.16,7.0,NNE,8.1,-,N/A,,Clear,20,2014-03-09 23:35:00
6:55 PM,60.6,54.5,80,30.16,10.0,NNE,9.2,-,N/A,,Clear,20,2014-03-09 23:55:00
7:15 PM,60.4,54.3,80,30.16,10.0,North,10.4,-,N/A,,Clear,10,2014-03-10 00:15:00
7:35 PM,59.0,53.8,83,30.17,10.0,NNE,5.8,-,N/A,,Clear,20,2014-03-10 00:35:00
7:55 PM,57.6,53.2,85,30.19,10.0,North,3.5,-,N/A,,Clear,10,2014-03-10 00:55:00
8:15 PM,57.2,53.4,87,30.21,10.0,WNW,3.5,-,N/A,,Mostly Cloudy,290,2014-03-10 01:15:00
8:35 PM,57.2,53.6,88,30.21,10.0,NNW,3.5,-,N/A,,Overcast,330,2014-03-10 01:35:00
8:55 PM,56.7,53.4,89,30.21,10.0,NW,4.6,-,N/A,,Overcast,320,2014-03-10 01:55:00
9:15 PM,56.1,53.1,89,30.23,10.0,NW,3.5,-,N/A,,Overcast,310,2014-03-10 02:15:00
9:35 PM,55.9,53.1,90,30.23,10.0,NNW,3.5,-,N/A,,Overcast,330,2014-03-10 02:35:00
9:55 PM,55.6,52.9,91,30.23,10.0,Calm,Calm,-,N/A,,Overcast,0,2014-03-10 02:55:00
10:15 PM,55.2,52.7,91,30.24,7.0,NW,3.5,-,N/A,,Overcast,310,2014-03-10 03:15:00
10:35 PM,54.7,52.5,92,30.23,5.0,Calm,Calm,-,N/A,,Mostly Cloudy,0,2014-03-10 03:35:00
10:55 PM,54.0,52.0,93,30.23,5.0,NW,4.6,-,N/A,,Clear,320,2014-03-10 03:55:00
11:15 PM,53.4,51.8,94,30.24,5.0,WNW,4.6,-,N/A,,Clear,290,2014-03-10 04:15:00
11:35 PM,52.9,51.4,95,30.24,4.0,NW,3.5,-,N/A,,Clear,310,2014-03-10 04:35:00
12:00 AM,52.3,50.9,95,30.23,4.0,NW,4.6,-,N/A,,Clear,310,2014-03-10 05:00:00
12:15 AM,52.3,50.9,95,30.22,5.0,NW,4.6,-,N/A,,Clear,320,2014-03-10 05:15:00
12:35 AM,52.0,50.2,94,30.22,5.0,NW,4.6,-,N/A,,Clear,310,2014-03-10 05:35:00
12:55 AM,51.6,50.0,94,30.21,5.0,NNW,3.5,-,N/A,,Clear,330,2014-03-10 05:55:00